EN

Hourly Weather Monrovia

Today, 13 June, Sunday

Time Temperature Precipitation Wind Pressure Humidity
00:00 +27°C° 1.4 mm 2 mps 759 mmHg 88%
01:00 +27°C° 1.4 mm 2 mps 759 mmHg 89%
02:00 +27°C° 1.4 mm 1 mps 759 mmHg 90%
03:00 +27°C° 0.4 mm 1 mps 759 mmHg 90%
04:00 +27°C° 0.4 mm 1 mps 759 mmHg 90%
05:00 +27°C° 0 mm 1 mps 759 mmHg 89%
06:00 +27°C° 0 mm 1 mps 759 mmHg 87%
07:00 +28°C° 0 mm 1 mps 760 mmHg 85%
08:00 +29°C° 0 mm 1 mps 760 mmHg 82%
09:00 +30°C° 0 mm 2 mps 760 mmHg 78%
10:00 +31°C° 0 mm 2 mps 760 mmHg 73%
11:00 +33°C° 0 mm 3 mps 760 mmHg 68%
12:00 +33°C° 0.2 mm 3 mps 759 mmHg 69%
13:00 +33°C° 0.2 mm 3 mps 759 mmHg 71%
14:00 +32°C° 0.2 mm 4 mps 758 mmHg 73%
15:00 +30°C° 0.9 mm 4 mps 758 mmHg 77%
16:00 +29°C° 0.9 mm 3 mps 758 mmHg 82%
17:00 +29°C° 0.9 mm 3 mps 758 mmHg 87%
18:00 +28°C° 0.5 mm 3 mps 759 mmHg 87%
19:00 +28°C° 0.5 mm 3 mps 759 mmHg 88%
20:00 +28°C° 0.5 mm 4 mps 760 mmHg 89%
21:00 +27°C° 0.3 mm 4 mps 760 mmHg 89%
22:00 +27°C° 0.3 mm 4 mps 760 mmHg 90%
23:00 +27°C° 0.3 mm 4 mps 760 mmHg 90%

Tomorrow, 14 June, Monday

Time Temperature Precipitation Wind Pressure Humidity
00:00 +27°C° 1.5 mm 3 mps 759 mmHg 91%
01:00 +27°C° 1.5 mm 3 mps 759 mmHg 91%
02:00 +26°C° 1.5 mm 3 mps 759 mmHg 92%
03:00 +26°C° 1.7 mm 2 mps 759 mmHg 92%
04:00 +26°C° 1.7 mm 2 mps 759 mmHg 92%
05:00 +26°C° 1.7 mm 2 mps 759 mmHg 92%
06:00 +27°C° 0.9 mm 1 mps 760 mmHg 89%
07:00 +28°C° 0.9 mm 1 mps 760 mmHg 86%
08:00 +29°C° 0.9 mm 1 mps 760 mmHg 83%
09:00 +29°C° 0.4 mm 1 mps 760 mmHg 80%
10:00 +30°C° 0.4 mm 2 mps 760 mmHg 76%
11:00 +31°C° 0.4 mm 2 mps 760 mmHg 73%
12:00 +30°C° 0.3 mm 3 mps 760 mmHg 74%
13:00 +30°C° 0.3 mm 3 mps 759 mmHg 75%
14:00 +30°C° 0.3 mm 3 mps 759 mmHg 76%
15:00 +30°C° 0.3 mm 3 mps 759 mmHg 78%
16:00 +29°C° 0.3 mm 3 mps 759 mmHg 80%
17:00 +29°C° 0.3 mm 3 mps 759 mmHg 82%
18:00 +28°C° 0 mm 3 mps 759 mmHg 84%
19:00 +28°C° 0 mm 3 mps 760 mmHg 85%
20:00 +27°C° 0 mm 3 mps 760 mmHg 87%
21:00 +27°C° 0.6 mm 3 mps 760 mmHg 88%
22:00 +27°C° 0.6 mm 3 mps 760 mmHg 89%
23:00 +27°C° 0.6 mm 3 mps 760 mmHg 90%

Day after tomorrow, 15 June, Tuesday

Time Temperature Precipitation Wind Pressure Humidity
00:00 +27°C° 1.1 mm 2 mps 760 mmHg 90%
01:00 +26°C° 1.1 mm 2 mps 759 mmHg 91%
02:00 +26°C° 1.1 mm 2 mps 759 mmHg 91%
03:00 +26°C° 0.7 mm 1 mps 759 mmHg 91%
04:00 +26°C° 0.7 mm 1 mps 759 mmHg 91%
05:00 +26°C° 0.7 mm 1 mps 760 mmHg 91%
06:00 +27°C° 0 mm 1 mps 760 mmHg 88%
07:00 +28°C° 0 mm 1 mps 760 mmHg 85%
08:00 +28°C° 0 mm 1 mps 761 mmHg 83%
09:00 +29°C° 0.2 mm 1 mps 761 mmHg 80%
10:00 +30°C° 0.2 mm 1 mps 761 mmHg 76%
11:00 +30°C° 0.2 mm 1 mps 760 mmHg 73%
12:00 +30°C° 0.4 mm 2 mps 760 mmHg 73%
13:00 +30°C° 0.4 mm 2 mps 759 mmHg 73%
14:00 +30°C° 0.4 mm 3 mps 759 mmHg 73%
15:00 +29°C° 0.5 mm 3 mps 759 mmHg 77%
16:00 +29°C° 0.5 mm 3 mps 759 mmHg 81%
17:00 +28°C° 0.5 mm 3 mps 759 mmHg 85%
18:00 +28°C° 0.1 mm 3 mps 760 mmHg 86%
19:00 +27°C° 0.1 mm 3 mps 760 mmHg 86%
20:00 +27°C° 0.1 mm 3 mps 761 mmHg 87%
21:00 +27°C° 0 mm 3 mps 761 mmHg 87%
22:00 +27°C° 0 mm 3 mps 761 mmHg 87%
23:00 +27°C° 0 mm 2 mps 761 mmHg 87%

16 June, Wednesday

Time Temperature Precipitation Wind Pressure Humidity
00:00 +27°C° 1.2 mm 2 mps 760 mmHg 88%
01:00 +27°C° 1.2 mm 2 mps 760 mmHg 89%
02:00 +26°C° 1.2 mm 1 mps 760 mmHg 90%
03:00 +26°C° 0.3 mm 1 mps 760 mmHg 90%
04:00 +26°C° 0.3 mm 1 mps 760 mmHg 91%
05:00 +26°C° 0.3 mm 2 mps 760 mmHg 91%
06:00 +27°C° 0.2 mm 1 mps 760 mmHg 89%
07:00 +27°C° 0.2 mm 1 mps 761 mmHg 87%
08:00 +28°C° 0.2 mm 1 mps 761 mmHg 85%
09:00 +29°C° 0.3 mm 1 mps 761 mmHg 82%
10:00 +29°C° 0.3 mm 2 mps 761 mmHg 79%
11:00 +30°C° 0.3 mm 2 mps 761 mmHg 77%
12:00 +30°C° 0.4 mm 2 mps 760 mmHg 77%
13:00 +30°C° 0.4 mm 3 mps 760 mmHg 78%
14:00 +30°C° 0.4 mm 3 mps 759 mmHg 78%
15:00 +29°C° 0.2 mm 3 mps 759 mmHg 80%
16:00 +28°C° 0.2 mm 4 mps 759 mmHg 82%
17:00 +28°C° 0.2 mm 4 mps 759 mmHg 85%
18:00 +28°C° 0.1 mm 3 mps 760 mmHg 85%
19:00 +27°C° 0.1 mm 3 mps 760 mmHg 86%
20:00 +27°C° 0.1 mm 2 mps 761 mmHg 87%
21:00 +27°C° 1.2 mm 2 mps 760 mmHg 88%
22:00 +27°C° 1.2 mm 3 mps 760 mmHg 90%
23:00 +27°C° 1.2 mm 3 mps 760 mmHg 91%

17 June, Thursday

Time Temperature Precipitation Wind Pressure Humidity
00:00 +27°C° 0.1 mm 3 mps 760 mmHg 91%
01:00 +27°C° 0.1 mm 3 mps 760 mmHg 91%
02:00 +27°C° 0.1 mm 3 mps 759 mmHg 90%
03:00 +27°C° 1.2 mm 2 mps 760 mmHg 91%
04:00 +27°C° 1.2 mm 2 mps 760 mmHg 91%
05:00 +26°C° 1.2 mm 2 mps 760 mmHg 92%
06:00 +27°C° 0.6 mm 1 mps 760 mmHg 89%
07:00 +28°C° 0.6 mm 1 mps 761 mmHg 87%
08:00 +28°C° 0.6 mm 1 mps 761 mmHg 84%
09:00 +29°C° 0.6 mm 1 mps 761 mmHg 83%
10:00 +29°C° 0.6 mm 2 mps 761 mmHg 82%
11:00 +29°C° 0.6 mm 2 mps 761 mmHg 80%
12:00 +29°C° 0.2 mm 3 mps 761 mmHg 79%
13:00 +30°C° 0.2 mm 3 mps 760 mmHg 78%
14:00 +30°C° 0.2 mm 4 mps 760 mmHg 78%
15:00 +29°C° 0.2 mm 4 mps 760 mmHg 80%
16:00 +29°C° 0.2 mm 4 mps 760 mmHg 82%
17:00 +28°C° 0.2 mm 4 mps 760 mmHg 84%
18:00 +28°C° 0.5 mm 4 mps 760 mmHg 86%
19:00 +27°C° 0.5 mm 4 mps 760 mmHg 88%
20:00 +27°C° 0.5 mm 3 mps 761 mmHg 90%
21:00 +27°C° 0 mm 3 mps 761 mmHg 89%
22:00 +27°C° 0 mm 3 mps 761 mmHg 89%
23:00 +27°C° 0 mm 3 mps 761 mmHg 89%

18 June, Friday

Time Temperature Precipitation Wind Pressure Humidity
00:00 +27°C° 0.1 mm 3 mps 760 mmHg 89%
01:00 +27°C° 0.1 mm 2 mps 760 mmHg 90%
02:00 +27°C° 0.1 mm 2 mps 760 mmHg 90%
03:00 +26°C° 0.4 mm 2 mps 760 mmHg 90%
04:00 +26°C° 0.4 mm 1 mps 760 mmHg 91%
05:00 +26°C° 0.4 mm 1 mps 760 mmHg 91%
06:00 +27°C° 0.3 mm 1 mps 760 mmHg 88%
07:00 +28°C° 0.3 mm 1 mps 761 mmHg 86%
08:00 +29°C° 0.3 mm 1 mps 761 mmHg 83%
09:00 +30°C° 0 mm 2 mps 761 mmHg 78%
10:00 +30°C° 0 mm 3 mps 760 mmHg 74%
11:00 +31°C° 0 mm 3 mps 760 mmHg 69%
12:00 +32°C° 0.1 mm 4 mps 760 mmHg 70%
13:00 +32°C° 0.1 mm 4 mps 760 mmHg 70%
14:00 +32°C° 0.1 mm 4 mps 759 mmHg 71%
15:00 +30°C° 0.4 mm 4 mps 759 mmHg 75%
16:00 +30°C° 0.4 mm 4 mps 759 mmHg 78%
17:00 +29°C° 0.4 mm 4 mps 759 mmHg 81%
18:00 +28°C° 0.4 mm 4 mps 760 mmHg 84%
19:00 +28°C° 0.4 mm 4 mps 760 mmHg 86%
20:00 +27°C° 0.4 mm 4 mps 760 mmHg 89%
21:00 +27°C° 1.5 mm 3 mps 761 mmHg 89%
22:00 +27°C° 1.5 mm 2 mps 761 mmHg 90%
23:00 +27°C° 1.5 mm 2 mps 761 mmHg 90%
Show more